Regional Weather Roundup
Issued by NWS

Home | Current Version | Previous Version | Text Only | Print | Product List | Glossary On
Versions: 1 2 3 4 5 6 7 8 9 10 11 12 13 14 15 16 17 18 19 20 21 22 23 24 25 26 27 28 29 30 31 32 33 34 35 36 37 38 39 40 41 42 43 44 45 46 47 48 49 50
000
ASUS42 KTBW 011417
RWRFL
FLORIDA REGIONAL WEATHER ROUNDUP
NATIONAL WEATHER SERVICE TAMPA BAY RUSKIN FL
1000 AM EDT SAT AUG 01 2015

NOTE: "FAIR" INDICATES FEW OR NO CLOUDS BELOW 12,000 FEET WITH NO
SIGNIFICANT WEATHER AND/OR OBSTRUCTIONS TO VISIBILITY.


FLZ001>010-012>015-112-114-115-011500-
PANHANDLE FLORIDA

CITY           SKY/WX    TMP DP  RH WIND       PRES   REMARKS
PENSACOLA      MOSUNNY   80  76  87 NE7       29.88S
PENSACOLA NAS  PTSUNNY   82  76  81 N10       29.87R
MILTON NAS     CLOUDY    79  76  90 VRB7      29.89
CRESTVIEW      SUNNY     83  75  77 N7        29.90S
DUKE FIELD     FAIR      80  74  81 NE7       29.88S
VALPARAISO     PTSUNNY   83  74  73 NE10      29.87S
MARY ESTHER    SUNNY     83  73  70 NE10      29.86S
TRI COUNTY     FAIR      82  75  79 N7        29.90S
PANAMA CITY    FAIR      82  74  76 NE7       29.88R
TYNDALL AFB    PTSUNNY   81  77  89 NE7       29.89R
APALACHICOLA   PTSUNNY   85  78  80 E5        29.88R HX  96

STATION/POSITION SKY/WX   TEMP    WIND        PRES    WAVE   SWELL
                          AIR SEA DIR/SP/G            HT/PER HT/PER
                          (F)     (DEG/KT/KT) (MB)    (FT/S) (FT/S)
30.1N   87.6W              81 85   20/ 12/ 14 1010.6R   2/ 3
29.2N   88.2W              85 87  260/  6/  8 1011.8R   1/ 4
28.8N   86.0W              79 86  200/ 12/ 16 1012.2F   4/ 7   3/ 7
PANAMA CITY BEAC           79 85   30/  8/ 11 1011.1R
CAPE SAN BLAS    NOT AVBL
TOWER C                    83     220/ 10/ 10 1012.0R
28.5N   84.5W              79 85  210/ 23/ 29 1013.0R   6/ 6   2/16

$$
FLZ011-016>038-118-127-128-134-139-239-011500-
NORTH FLORIDA

CITY           SKY/WX    TMP DP  RH WIND       PRES   REMARKS
MARIANNA       CLOUDY    77  75  93 NE6       29.89S
TALLAHASSEE    PTSUNNY   83  77  82 E6        29.90R
PERRY          PTSUNNY   79  79 100 SE6       29.92R
CROSS CITY       N/A     76  76 100 CALM      29.92R
LAKE CITY      CLOUDY    79  75  89 S7        29.93R
GAINESVILLE    CLOUDY    78  74  87 SE5       29.93F
MAYPORT NAS    CLOUDY    83  74  74 SW9       29.93S
JACKSONVILLE   PTSUNNY   83  74  74 S12G17    29.93R
JAX NAS        PTSUNNY   84  73  69 S12       29.94S
JAX CRAIG      PTSUNNY   83  73  72 SW15      29.93S
JAX CECIL      PTSUNNY   81  73  78 S7        29.94R
FERNANDINA BEA CLOUDY    84  73  70 SW6       29.92S
ST AUGUSTINE   CLOUDY    82  74  76 SW13      29.95F

STATION/POSITION SKY/WX   TEMP    WIND        PRES    WAVE   SWELL
                          AIR SEA DIR/SP/G            HT/PER HT/PER
                          (F)     (DEG/KT/KT) (MB)    (FT/S) (FT/S)
SHELL POINT                80      60/  2/  5   N/A
KEATON BEACH               79     190/ 10/ 11 1013.2R
CEDAR KEY                  82     230/ 14/ 21 1013.2S
FERNANDINA                 79 85  200/  7/ 11 1013.0R
30.7N   81.3W                 82                N/A     3/ 5
MAYPORT                    79 83  210/  7/ 12 1013.8F
31.4N   80.9W              80 82  260/ 10/ 12 1013.4F   3/ 6   2/ 6
ST AUGUSTINE               80 80  200/ 11/ 15 1014.6F

$$
FLZ040-043>046-052-053-057-058-063-144-011500-
INTERIOR CENTRAL FLORIDA

CITY           SKY/WX    TMP DP  RH WIND       PRES   REMARKS
OCALA          PTSUNNY   77  73  88 S7        29.95S
THE VILLAGES     N/A     81  81 100 SE8       29.86F
LEESBURG       PTSUNNY   80  74  81 S9        29.97F
SANFORD        PTSUNNY   79  71  76 S9        29.97S
ORLANDO EXEC   PTSUNNY   81  72  74 SW13      29.97F
ORLANDO INTL   PTSUNNY   80  72  76 S10       29.97F
KISSIMMEE      MOSUNNY   81  73  78 S7        29.98F
WINTER HAVEN   LGT RAIN  77  73  87 S6        30.00S
LAKELAND       PTSUNNY   79  73  83 S5        29.99S
BARTOW         CLOUDY    75  73  94 S7        30.00S
OKEECHOBEE     CLOUDY    79  72  78 S5        30.01S

$$
FLZ041-047-054-059-064-141-147-011500-
EAST CENTRAL FLORIDA

CITY           SKY/WX    TMP DP  RH WIND       PRES   REMARKS
ORMOND BEACH   MOSUNNY   79  73  83 SW6       29.95F
DAYTONA BEACH  PTSUNNY   81  73  76 S10       29.96F
DELAND           N/A     82  73  74 S15       29.97F
NEW SMYRNA BEA MOSUNNY   82  73  74 SW12      29.96
JFK SPACE CTR  CLOUDY    79  70  73 SW10      29.97F
TITUSVILLE     PTSUNNY   79  70  73 SW12      29.98F
CAPE CANAVERAL PTSUNNY   81  70  70 W7        29.97F
PATRICK AFB    MOSUNNY   80  71  73 SW10      29.97F
MELBOURNE      CLOUDY    79  70  74 SW8       29.98F
VERO BEACH     CLOUDY    78  70  76 S6        30.00R
FT PIERCE      CLOUDY    78  72  81 S7        30.00S
STUART         RAIN      75  72  88 CALM      30.02S

STATION/POSITION SKY/WX   TEMP    WIND        PRES    WAVE   SWELL
                          AIR SEA DIR/SP/G            HT/PER HT/PER
                          (F)     (DEG/KT/KT) (MB)    (FT/S) (FT/S)
28.5N   80.2W              80 84  220/ 16/ 17 1015.2S
28.9N   78.5W              79 84  230/ 19/ 23 1016.1R
TRIDENT PIER               78 78  200/ 10/ 12 1015.9F
28.4N   80.5W                 79                N/A     2/ 4
27.5N   80.2W                 76                N/A     1/10

$$
FLZ050-056-061-142-242-148-248-149-249-151-251-155-255-
160-260-011500-
WEST CENTRAL FLORIDA

CITY           SKY/WX    TMP DP  RH WIND       PRES   REMARKS
CRYSTAL RIVER  CLOUDY    79  77  94 S5        29.94S
INVERNESS      FAIR      81  77  89 S10       29.96S
BROOKSVILLE    PTSUNNY   79  76  90 S9        29.96F
ZEPHYRHILLS    CLOUDY    77  77 100 CALM      29.98S
CLEARWATER     PTSUNNY   85  75  72 S15       29.96S
TAMPA INTL     PTSUNNY   84  77  79 S10       29.96F
TAMPA EXEC     MOSUNNY   82  75  78 S8        29.97F
PLANT CITY     PTSUNNY   79  77  94 S5        29.99F
MACDILL AFB    MOSUNNY   83  83  99 S10       29.96F HX 100
PETER O KNIGHT MOSUNNY   84  79  84 S9        29.97S HX  96
ST PETERSBURG  PTSUNNY   84  77  79 S12       29.95S
SARASOTA       PTSUNNY   83  77  82 S16G22    29.96S
VENICE         LGT RAIN  75  72  88 S14       30.00F

STATION/POSITION SKY/WX   TEMP    WIND        PRES    WAVE   SWELL
                          AIR SEA DIR/SP/G            HT/PER HT/PER
                          (F)     (DEG/KT/KT) (MB)    (FT/S) (FT/S)
CEDAR KEY                  82     230/ 14/ 21 1013.2S
28.5N   84.5W              79 85  210/ 23/ 29 1013.0R   6/ 6   2/16
27.3N   84.2W                 84                N/A     5/ 7
CLEARWATER BEACH           83 83  190/ 16/ 18 1014.4R
MIDDLE TAMPA BAY           80     170/  9/ 10 1015.2R
VENICE                     79 85  190/ 14/ 15 1015.5R

$$
FLZ066-069-070-075>078-162-262-165-265-011500-
SOUTHWEST FLORIDA AND KEYS

CITY           SKY/WX    TMP DP  RH WIND       PRES   REMARKS
PUNTA GORDA    PTSUNNY   82  76  81 S7        30.01R
FT MYERS       CLOUDY    80  74  81 S8        29.99R
SOUTHWEST INTL   N/A     79  74  84 SE6       30.00R
NAPLES         CLOUDY    83  77  82 SE7       29.99R
MARCO ISLAND   SUNNY     81  73  78 SE6       30.00R
MARATHON       MOSUNNY   89  77  67 SE6       30.00S HX 101
KEY WEST NAS   PTSUNNY   87  76  69 S12       30.00R HX  97
KEY WEST INTL  MOSUNNY   86  76  71 S13       30.00R HX  96

STATION/POSITION SKY/WX   TEMP    WIND        PRES    WAVE   SWELL
                          AIR SEA DIR/SP/G            HT/PER HT/PER
                          (F)     (DEG/KT/KT) (MB)    (FT/S) (FT/S)
VENICE                     79 85  190/ 14/ 15 1015.5R
NAPLES                        86              1016.2R
26.0N   85.6W              84 84  220/ 14/ 16 1014.0R   3/ 6   2/ 9
DRY TORTUGAS               86     170/ 12/ 13 1015.2R
NW FL BAY                  87     170/ 11/ 13 1015.8
SAND KEY                   85     160/ 12/ 14 1015.9R
SOMBRERO KEY               86     150/ 13/ 14 1016.7R
LONG KEY                   86 88  150/ 12/ 14 1016.7R
MOLASSES REEF              85 87  150/ 12/ 13 1016.2F

$$
FLZ067-068-071>074-168-172>174-011500-
SOUTHEAST FLORIDA

CITY           SKY/WX    TMP DP  RH WIND       PRES   REMARKS
W PALM BEACH   CLOUDY    83  75  77 CALM      30.02R
FT LAUDER-EXEC CLOUDY    83  74  74 CALM      30.00F
FT LAUDERDALE  CLOUDY    85  77  77 CALM      30.00S HX  95
POMPANO BEACH  CLOUDY    87  76  69 SE12      29.99F HX  97
PEMBROKE PINES CLOUDY    84  73  69 CALM      30.02S
OPA LOCKA      CLOUDY    84  75  74 CALM      30.01S
MIAMI          CLOUDY    85  75  72 S5        30.01S
WEST KENDALL   CLOUDY    84  77  79 S3        30.01S
HOMESTEAD      CLOUDY    85  76  73 SE8       30.00F HX  95

STATION/POSITION SKY/WX   TEMP    WIND        PRES    WAVE   SWELL
                          AIR SEA DIR/SP/G            HT/PER HT/PER
                          (F)     (DEG/KT/KT) (MB)    (FT/S) (FT/S)
PORT EVERGLADES            85     150/  9/ 12 1015.9F
VIRGINIA KEY               85 86  150/  5/  6 1015.8R


USA.gov is the U.S. government's official web portal to all federal, state and local government web resources and services.